| time (UTC) | temp F | wind direction | speed knots | gust knots | rain 1hr in | rain 24hr in | rain mn in | humidity % | barometer mb |
| 20260510142447 | 40 | 325 | 5.2 | 10.4 | 0.00 | 0.00 | 0.00 | 69 | 1013.6 |
| 20260510141942 | 40 | 306 | 6.1 | 9.6 | 0.00 | 0.00 | 0.00 | 68 | 1013.6 |
| 20260510141436 | 41 | 312 | 5.2 | 9.6 | 0.00 | 0.00 | 0.00 | 68 | 1013.3 |
| 20260510141155 | 41 | 301 | 3.5 | 9.6 | 0.00 | 0.00 | 0.00 | 67 | 1013.3 |
| 20260510140422 | 41 | 329 | 2.6 | 7.8 | 0.00 | 0.00 | 0.00 | 68 | 1013.3 |
| 20260510135918 | 41 | 310 | 2.6 | 8.7 | 0.00 | 0.00 | 0.00 | 69 | 1013.2 |
| 20260510135410 | 41 | 314 | 2.6 | 8.7 | 0.00 | 0.00 | 0.00 | 69 | 1013.2 |
| 20260510134905 | 41 | 285 | 2.6 | 8.7 | 0.00 | 0.00 | 0.00 | 69 | 1013.2 |
| 20260510134359 | 41 | 314 | 3.5 | 9.6 | 0.00 | 0.00 | 0.00 | 69 | 1013.0 |
| 20260510134111 | 41 | 310 | 3.5 | 9.6 | 0.00 | 0.00 | 0.00 | 69 | 1013.0 |
| 20260510133342 | 41 | 308 | 4.3 | 9.6 | 0.00 | 0.00 | 0.00 | 71 | 1013.0 |
| 20260510132835 | 40 | 306 | 4.3 | 8.7 | 0.00 | 0.00 | 0.00 | 71 | 1012.9 |
| 20260510132329 | 40 | 295 | 3.5 | 8.7 | 0.00 | 0.00 | 0.00 | 71 | 1012.9 |
| 20260510131824 | 40 | 316 | 3.5 | 8.7 | 0.00 | 0.00 | 0.00 | 72 | 1012.9 |
| 20260510131539 | 40 | 323 | 4.3 | 8.7 | 0.00 | 0.00 | 0.00 | 72 | 1012.8 |
| 20260510131045 | 40 | 303 | 5.2 | 8.7 | 0.00 | 0.00 | 0.00 | 72 | 1012.8 |
| 20260510130307 | 40 | 342 | 5.2 | 8.7 | 0.00 | 0.00 | 0.00 | 71 | 1012.8 |
| 20260510125802 | 40 | 323 | 4.3 | 7.8 | 0.00 | 0.00 | 0.00 | 72 | 1012.7 |
| 20260510125254 | 39 | 285 | 4.3 | 8.7 | 0.00 | 0.00 | 0.00 | 73 | 1012.7 |
| 20260510124749 | 39 | 301 | 5.2 | 8.7 | 0.00 | 0.00 | 0.00 | 74 | 1012.7 |
| 20260510124242 | 39 | 295 | 5.2 | 8.7 | 0.00 | 0.00 | 0.00 | 74 | 1012.4 |
| 20260510124009 | 38 | 324 | 4.3 | 8.7 | 0.00 | 0.00 | 0.00 | 75 | 1012.4 |
| 20260510123232 | 38 | 312 | 4.3 | 7.8 | 0.00 | 0.00 | 0.00 | 76 | 1012.4 |
| 20260510122952 | 38 | 308 | 4.3 | 7.8 | 0.00 | 0.00 | 0.00 | 76 | 1012.1 |
| 20260510122703 | 38 | 309 | 4.3 | 7.8 | 0.00 | 0.00 | 0.00 | 76 | 1012.1 |
| 20260510121713 | 38 | 310 | 3.5 | 6.1 | 0.00 | 0.00 | 0.00 | 75 | 1012.1 |
| 20260510121210 | 38 | 310 | 3.5 | 6.1 | 0.00 | 0.00 | 0.00 | 75 | 1012.0 |
| 20260510120659 | 37 | 310 | 2.6 | 6.1 | 0.00 | 0.00 | 0.00 | 75 | 1012.0 |
| 20260510120154 | 37 | 311 | 2.6 | 6.1 | 0.00 | 0.00 | 0.00 | 75 | 1012.0 |
| 20260510115648 | 37 | 310 | 2.6 | 5.2 | 0.00 | 0.00 | 0.00 | 75 | 1011.7 |
| 20260510115142 | 37 | 310 | 3.5 | 6.1 | 0.00 | 0.00 | 0.00 | 75 | 1011.7 |
| 20260510114637 | 37 | 310 | 3.5 | 6.1 | 0.00 | 0.00 | 0.00 | 74 | 1011.7 |
| 20260510114130 | 37 | 308 | 3.5 | 6.1 | 0.00 | 0.00 | 0.00 | 74 | 1011.7 |
| 20260510113625 | 37 | 308 | 3.5 | 6.1 | 0.00 | 0.00 | 0.00 | 74 | 1011.7 |
| 20260510113116 | 37 | 307 | 2.6 | 5.2 | 0.00 | 0.00 | 0.00 | 73 | 1011.7 |
| 20260510112609 | 37 | 307 | 2.6 | 8.7 | 0.00 | 0.00 | 0.00 | 73 | 1011.5 |
| 20260510112100 | 37 | 307 | 1.7 | 8.7 | 0.00 | 0.00 | 0.00 | 73 | 1011.5 |
| 20260510111554 | 37 | 307 | 3.5 | 8.7 | 0.00 | 0.00 | 0.00 | 72 | 1011.5 |
| 20260510111046 | 37 | 307 | 4.3 | 8.7 | 0.00 | 0.00 | 0.00 | 72 | 1011.4 |
| 20260510110536 | 38 | 326 | 4.3 | 7.8 | 0.00 | 0.00 | 0.00 | 72 | 1011.4 |
| 20260510110029 | 38 | 326 | 4.3 | 7.8 | 0.00 | 0.00 | 0.00 | 71 | 1011.4 |
| 20260510105517 | 38 | 310 | 4.3 | 7.0 | 0.00 | 0.00 | 0.00 | 71 | 1011.1 |
| 20260510105227 | 38 | 320 | 4.3 | 7.8 | 0.00 | 0.00 | 0.00 | 71 | 1011.1 |
| 20260510104451 | 38 | 326 | 4.3 | 7.8 | 0.00 | 0.00 | 0.00 | 71 | 1010.7 |
| 20260510103942 | 38 | 336 | 3.5 | 7.8 | 0.00 | 0.00 | 0.00 | 71 | 1010.7 |
| 20260510103427 | 38 | 337 | 3.5 | 7.8 | 0.00 | 0.00 | 0.00 | 71 | 1010.7 |
| 20260510102917 | 37 | 329 | 3.5 | 7.0 | 0.00 | 0.00 | 0.00 | 71 | 1010.6 |
| 20260510102405 | 37 | 321 | 3.5 | 7.0 | 0.00 | 0.00 | 0.00 | 71 | 1010.6 |
| 20260510101851 | 37 | 320 | 2.6 | 5.2 | 0.00 | 0.00 | 0.00 | 70 | 1010.6 |
| 20260510101557 | 37 | 320 | 2.6 | 4.3 | 0.00 | 0.00 | 0.00 | 71 | 1010.4 |
| 20260510100829 | 37 | 320 | 2.6 | 4.3 | 0.00 | 0.00 | 0.00 | 71 | 1010.4 |
| 20260510100537 | 37 | 320 | 2.6 | 4.3 | 0.00 | 0.00 | 0.00 | 71 | 1010.4 |
| 20260510095804 | 37 | 320 | 1.7 | 4.3 | 0.00 | 0.00 | 0.00 | 74 | 1010.1 |
| 20260510095251 | 37 | 320 | 1.7 | 4.3 | 0.00 | 0.00 | 0.00 | 71 | 1010.1 |
| 20260510094739 | 37 | 320 | 1.7 | 4.3 | 0.00 | 0.00 | 0.00 | 71 | 1010.1 |
| 20260510094446 | 37 | 320 | 2.6 | 4.3 | 0.00 | 0.00 | 0.00 | 71 | 1010.0 |
| 20260510093716 | 37 | 320 | 2.6 | 3.5 | 0.00 | 0.00 | 0.00 | 71 | 1010.0 |
| 20260510093204 | 37 | 320 | 2.6 | 4.3 | 0.00 | 0.00 | 0.00 | 70 | 1010.0 |
| 20260510092652 | 37 | 320 | 1.7 | 4.3 | 0.00 | 0.00 | 0.00 | 70 | 1009.7 |
| 20260510092141 | 37 | 320 | 1.7 | 4.3 | 0.00 | 0.00 | 0.00 | 70 | 1009.7 |
| 20260510091635 | 37 | 320 | 2.6 | 4.3 | 0.00 | 0.00 | 0.00 | 70 | 1009.7 |
| 20260510091128 | 38 | 320 | 2.6 | 4.3 | 0.00 | 0.00 | 0.00 | 69 | 1009.5 |
| 20260510090622 | 38 | 320 | 1.7 | 4.3 | 0.00 | 0.00 | 0.00 | 69 | 1009.5 |
| 20260510090116 | 38 | 320 | 2.6 | 4.3 | 0.00 | 0.00 | 0.00 | 69 | 1009.5 |
| 20260510085834 | 37 | 320 | 2.6 | 4.3 | 0.00 | 0.00 | 0.00 | 69 | 1009.5 |
| 20260510085103 | 37 | 320 | 2.6 | 4.3 | 0.00 | 0.00 | 0.00 | 69 | 1009.5 |
| 20260510084559 | 38 | 320 | 2.6 | 4.3 | 0.00 | 0.00 | 0.00 | 69 | 1009.5 |
| 20260510084052 | 38 | 320 | 1.7 | 4.3 | 0.00 | 0.00 | 0.00 | 68 | 1009.5 |
| 20260510083547 | 38 | 320 | 1.7 | 4.3 | 0.00 | 0.00 | 0.00 | 68 | 1009.5 |
| 20260510083039 | 38 | 320 | 2.6 | 4.3 | 0.00 | 0.00 | 0.00 | 68 | 1009.5 |
| 20260510082534 | 38 | 320 | 2.6 | 4.3 | 0.00 | 0.00 | 0.00 | 68 | 1009.2 |
| 20260510082027 | 38 | 320 | 2.6 | 4.3 | 0.00 | 0.00 | 0.00 | 68 | 1009.2 |
| 20260510081521 | 38 | 320 | 2.6 | 4.3 | 0.00 | 0.00 | 0.00 | 67 | 1009.2 |
| 20260510081015 | 38 | 320 | 2.6 | 3.5 | 0.00 | 0.00 | 0.00 | 67 | 1009.1 |
| 20260510080507 | 38 | 320 | 2.6 | 4.3 | 0.00 | 0.00 | 0.00 | 67 | 1009.1 |
| 20260510075959 | 39 | 320 | 2.6 | 4.3 | 0.00 | 0.00 | 0.00 | 67 | 1009.1 |
| 20260510075451 | 39 | 320 | 2.6 | 4.3 | 0.00 | 0.00 | 0.00 | 66 | 1009.1 |
| 20260510074945 | 39 | 320 | 2.6 | 4.3 | 0.00 | 0.00 | 0.00 | 66 | 1009.1 |
| 20260510074441 | 38 | 320 | 1.7 | 3.5 | 0.00 | 0.00 | 0.00 | 67 | 1009.0 |
| 20260510074158 | 38 | 320 | 1.7 | 3.5 | 0.00 | 0.00 | 0.00 | 67 | 1009.0 |
| 20260510073428 | 38 | 320 | 1.7 | 3.5 | 0.00 | 0.00 | 0.00 | 66 | 1009.0 |
| 20260510072922 | 38 | 320 | 1.7 | 3.5 | 0.00 | 0.00 | 0.00 | 66 | 1009.0 |
| 20260510072417 | 38 | 320 | 1.7 | 3.5 | 0.00 | 0.00 | 0.00 | 66 | 1009.0 |
| 20260510071910 | 38 | 320 | 2.6 | 3.5 | 0.00 | 0.00 | 0.00 | 66 | 1009.0 |
| 20260510071403 | 38 | 320 | 1.7 | 3.5 | 0.00 | 0.00 | 0.00 | 66 | 1009.0 |
| 20260510070857 | 38 | 320 | 0.9 | 3.5 | 0.00 | 0.00 | 0.00 | 67 | 1009.0 |
| 20260510070346 | 38 | 320 | 0.9 | 3.5 | 0.00 | 0.00 | 0.00 | 67 | 1009.0 |
| 20260510065840 | 38 | 320 | 0.9 | 2.6 | 0.00 | 0.00 | 0.00 | 67 | 1008.9 |
| 20260510065556 | 38 | 320 | 0.9 | 2.6 | 0.00 | 0.00 | 0.00 | 67 | 1008.9 |
| 20260510065046 | 38 | 320 | 0.9 | 2.6 | 0.00 | 0.00 | 0.00 | 66 | 1008.9 |
| 20260510064324 | 38 | 320 | 0.9 | 2.6 | 0.00 | 0.00 | 0.00 | 65 | 1009.0 |
| 20260510063821 | 38 | 320 | 0.0 | 1.7 | 0.00 | 0.00 | 0.00 | 64 | 1009.0 |
| 20260510063317 | 39 | 320 | 0.9 | 3.5 | 0.00 | 0.00 | 0.00 | 64 | 1009.0 |
| 20260510062811 | 39 | 320 | 0.9 | 3.5 | 0.00 | 0.00 | 0.00 | 64 | 1008.9 |
| 20260510062306 | 39 | 320 | 1.7 | 3.5 | 0.00 | 0.00 | 0.00 | 63 | 1008.9 |
| 20260510062243 | 39 | 320 | 1.7 | 3.5 | 0.00 | 0.00 | 0.00 | 63 | 1008.9 |
| 20260510061252 | 39 | 320 | 1.7 | 4.3 | 0.00 | 0.00 | 0.00 | 63 | 1008.9 |
| 20260510060744 | 39 | 320 | 1.7 | 4.3 | 0.00 | 0.00 | 0.00 | 62 | 1008.9 |
| 20260510060241 | 39 | 320 | 2.6 | 4.3 | 0.00 | 0.00 | 0.00 | 62 | 1008.9 |
| 20260510055734 | 39 | 320 | 2.6 | 4.3 | 0.00 | 0.00 | 0.00 | 62 | 1008.8 |
| 20260510055227 | 39 | 320 | 1.7 | 3.5 | 0.00 | 0.00 | 0.00 | 62 | 1008.8 |
| 20260510054720 | 39 | 320 | 1.7 | 3.5 | 0.00 | 0.00 | 0.00 | 61 | 1008.8 |
| 20260510054217 | 39 | 320 | 1.7 | 4.3 | 0.00 | 0.00 | 0.00 | 61 | 1008.6 |
| 20260510053710 | 39 | 320 | 1.7 | 4.3 | 0.00 | 0.00 | 0.00 | 61 | 1008.6 |
| 20260510053432 | 39 | 320 | 2.6 | 4.3 | 0.00 | 0.00 | 0.00 | 61 | 1008.6 |
| 20260510052658 | 39 | 320 | 2.6 | 4.3 | 0.00 | 0.00 | 0.00 | 61 | 1008.6 |
| 20260510052150 | 38 | 320 | 2.6 | 4.3 | 0.00 | 0.00 | 0.00 | 62 | 1008.6 |
| 20260510051644 | 38 | 320 | 1.7 | 4.3 | 0.00 | 0.00 | 0.00 | 62 | 1008.6 |
| 20260510051627 | 38 | 320 | 0.9 | 4.3 | 0.00 | 0.00 | 0.00 | 63 | 1008.5 |
| 20260510050854 | 38 | 320 | 1.7 | 4.3 | 0.00 | 0.00 | 0.00 | 63 | 1008.5 |
| 20260510050122 | 37 | 320 | 1.7 | 4.3 | 0.00 | 0.00 | 0.00 | 63 | 1008.5 |
| 20260510045623 | 37 | 315 | 0.0 | 3.5 | 0.00 | 0.00 | 0.00 | 63 | 1008.4 |
| 20260510045115 | 38 | 315 | 0.0 | 3.5 | 0.00 | 0.00 | 0.00 | 63 | 1008.4 |
| 20260510044604 | 38 | 315 | 0.9 | 3.5 | 0.00 | 0.00 | 0.00 | 62 | 1008.4 |
| 20260510044058 | 38 | 315 | 1.7 | 3.5 | 0.00 | 0.00 | 0.00 | 61 | 1008.3 |
| 20260510043552 | 38 | 315 | 0.9 | 2.6 | 0.00 | 0.00 | 0.00 | 60 | 1008.3 |
| 20260510043047 | 38 | 315 | 0.9 | 3.5 | 0.00 | 0.00 | 0.00 | 59 | 1008.3 |
| 20260510042541 | 38 | 315 | 0.9 | 3.5 | 0.00 | 0.00 | 0.00 | 60 | 1008.3 |
| 20260510042259 | 39 | 315 | 0.9 | 3.5 | 0.00 | 0.00 | 0.00 | 59 | 1008.3 |
| 20260510041530 | 39 | 315 | 0.9 | 3.5 | 0.00 | 0.00 | 0.00 | 59 | 1008.3 |
| 20260510041024 | 39 | 315 | 1.7 | 3.5 | 0.00 | 0.00 | 0.00 | 58 | 1008.2 |
| 20260510040517 | 39 | 315 | 1.7 | 3.5 | 0.00 | 0.00 | 0.00 | 58 | 1008.2 |
| 20260510040010 | 39 | 315 | 1.7 | 5.2 | 0.00 | 0.00 | 0.00 | 57 | 1008.2 |
| 20260510035728 | 39 | 315 | 2.6 | 5.2 | 0.00 | 0.00 | 0.00 | 57 | 1008.0 |
| 20260510034958 | 39 | 315 | 2.6 | 5.2 | 0.00 | 0.00 | 0.00 | 57 | 1008.0 |
| 20260510034453 | 39 | 315 | 1.7 | 5.2 | 0.00 | 0.00 | 0.00 | 58 | 1008.0 |
| 20260510033946 | 39 | 315 | 1.7 | 3.5 | 0.00 | 0.00 | 0.00 | 58 | 1008.0 |
| 20260510033442 | 39 | 315 | 1.7 | 2.6 | 0.00 | 0.00 | 0.00 | 58 | 1008.0 |
| 20260510032939 | 39 | 315 | 1.7 | 4.3 | 0.00 | 0.00 | 0.00 | 59 | 1008.0 |
| 20260510032435 | 39 | 315 | 1.7 | 4.3 | 0.00 | 0.00 | 0.00 | 58 | 1008.0 |
| 20260510031927 | 40 | 315 | 2.6 | 4.3 | 0.00 | 0.00 | 0.00 | 56 | 1008.0 |
| 20260510031422 | 40 | 315 | 2.6 | 4.3 | 0.00 | 0.00 | 0.00 | 55 | 1007.9 |
| 20260510031139 | 40 | 315 | 2.6 | 4.3 | 0.00 | 0.00 | 0.00 | 54 | 1007.9 |
| 20260510030411 | 40 | 315 | 2.6 | 3.5 | 0.00 | 0.00 | 0.00 | 53 | 1007.9 |
| 20260510025859 | 41 | 315 | 2.6 | 5.2 | 0.00 | 0.00 | 0.00 | 53 | 1007.7 |
| 20260510025354 | 41 | 315 | 2.6 | 5.2 | 0.00 | 0.00 | 0.00 | 52 | 1007.7 |
| 20260510025110 | 41 | 315 | 2.6 | 5.2 | 0.00 | 0.00 | 0.00 | 51 | 1007.7 |
| 20260510024606 | 41 | 315 | 2.6 | 5.2 | 0.00 | 0.00 | 0.00 | 51 | 1007.5 |
| 20260510023835 | 41 | 316 | 3.5 | 5.2 | 0.00 | 0.00 | 0.00 | 51 | 1007.5 |
| 20260510023330 | 41 | 316 | 3.5 | 5.2 | 0.00 | 0.00 | 0.00 | 51 | 1007.5 |
| 20260510022824 | 41 | 316 | 2.6 | 6.1 | 0.00 | 0.00 | 0.00 | 51 | 1007.5 |
| 20260510022538 | 41 | 316 | 0.9 | 6.1 | 0.00 | 0.00 | 0.00 | 51 | 1007.5 |
| 20260510021816 | 41 | 317 | 0.0 | 0.0 | 0.00 | 0.00 | 0.00 | 51 | 1007.5 |
| 20260510021314 | 42 | 317 | 0.0 | 0.0 | 0.00 | 0.00 | 0.00 | 51 | 1007.2 |
| 20260510020813 | 42 | 317 | 0.0 | 0.0 | 0.00 | 0.00 | 0.00 | 50 | 1007.2 |
| 20260510020311 | 42 | 317 | 0.0 | 0.0 | 0.00 | 0.00 | 0.00 | 49 | 1007.2 |
| 20260510015810 | 42 | 317 | 0.0 | 4.3 | 0.00 | 0.00 | 0.00 | 49 | 1006.9 |
| 20260510015307 | 43 | 317 | 0.9 | 4.3 | 0.00 | 0.00 | 0.00 | 47 | 1006.9 |
| 20260510014805 | 43 | 317 | 1.7 | 4.3 | 0.00 | 0.00 | 0.00 | 47 | 1006.9 |
| 20260510014305 | 43 | 317 | 2.6 | 6.1 | 0.00 | 0.00 | 0.00 | 46 | 1006.5 |
| 20260510013805 | 44 | 317 | 3.5 | 6.1 | 0.00 | 0.00 | 0.00 | 45 | 1006.5 |
| 20260510013302 | 44 | 317 | 3.5 | 10.4 | 0.00 | 0.00 | 0.00 | 45 | 1006.5 |
| 20260510013019 | 44 | 317 | 4.3 | 10.4 | 0.00 | 0.00 | 0.00 | 45 | 1006.5 |
| 20260510012258 | 44 | 320 | 5.2 | 10.4 | 0.00 | 0.00 | 0.00 | 44 | 1006.5 |
| 20260510011800 | 45 | 306 | 5.2 | 10.4 | 0.00 | 0.00 | 0.00 | 44 | 1006.5 |
| 20260510011744 | 45 | 310 | 4.3 | 8.7 | 0.00 | 0.00 | 0.00 | 44 | 1006.3 |
| 20260510010758 | 45 | 312 | 5.2 | 8.7 | 0.00 | 0.00 | 0.00 | 44 | 1006.3 |
| 20260510010300 | 45 | 312 | 5.2 | 8.7 | 0.00 | 0.00 | 0.00 | 44 | 1006.3 |
| 20260510005759 | 45 | 306 | 5.2 | 8.7 | 0.00 | 0.00 | 0.00 | 44 | 1006.1 |
| 20260510005300 | 46 | 317 | 4.3 | 8.7 | 0.00 | 0.00 | 0.00 | 43 | 1006.1 |
| 20260510005026 | 46 | 314 | 5.2 | 8.7 | 0.00 | 0.00 | 0.00 | 42 | 1006.1 |
| 20260510004257 | 46 | 308 | 5.2 | 8.7 | 0.00 | 0.00 | 0.00 | 42 | 1006.0 |
| 20260510003748 | 46 | 318 | 4.3 | 10.4 | 0.00 | 0.00 | 0.00 | 42 | 1006.0 |
| 20260510003448 | 47 | 304 | 6.1 | 10.4 | 0.00 | 0.00 | 0.00 | 40 | 1005.8 |
| 20260510003334 | 47 | 308 | 5.2 | 10.4 | 0.00 | 0.00 | 0.00 | 41 | 1006.0 |
| 20260510002247 | 47 | 312 | 4.3 | 10.4 | 0.00 | 0.00 | 0.00 | 40 | 1005.8 |
| 20260510001746 | 47 | 320 | 4.3 | 9.6 | 0.00 | 0.00 | 0.00 | 41 | 1005.8 |
| 20260510001249 | 48 | 318 | 4.3 | 11.3 | 0.00 | 0.00 | 0.00 | 40 | 1005.6 |
| 20260510000747 | 48 | 326 | 5.2 | 11.3 | 0.00 | 0.00 | 0.00 | 39 | 1005.6 |
| 20260510000248 | 47 | 340 | 4.3 | 11.3 | 0.00 | 0.00 | 0.00 | 40 | 1005.6 |
| 20260509235746 | 47 | 326 | 4.3 | 11.3 | 0.00 | 0.00 | 0.00 | 40 | 1005.4 |
| 20260509235246 | 47 | 338 | 5.2 | 10.4 | 0.00 | 0.00 | 0.00 | 39 | 1005.4 |
| 20260509234747 | 47 | 319 | 5.2 | 12.2 | 0.00 | 0.00 | 0.00 | 40 | 1005.4 |
| 20260509234246 | 47 | 314 | 5.2 | 12.2 | 0.00 | 0.00 | 0.00 | 41 | 1005.3 |
| 20260509233746 | 47 | 316 | 6.1 | 12.2 | 0.00 | 0.00 | 0.00 | 41 | 1005.3 |
| 20260509233244 | 47 | 334 | 6.1 | 12.2 | 0.00 | 0.00 | 0.00 | 39 | 1005.3 |
| 20260509232744 | 47 | 339 | 4.3 | 8.7 | 0.00 | 0.00 | 0.00 | 38 | 1005.2 |
| 20260509232244 | 47 | 1 | 3.5 | 8.7 | 0.00 | 0.00 | 0.00 | 41 | 1005.2 |
| 20260509231744 | 47 | 30 | 4.3 | 8.7 | 0.00 | 0.00 | 0.00 | 39 | 1005.2 |
| 20260509231245 | 48 | 306 | 4.3 | 8.7 | 0.00 | 0.00 | 0.00 | 39 | 1004.9 |
| 20260509230738 | 48 | 314 | 4.3 | 8.7 | 0.00 | 0.00 | 0.00 | 39 | 1004.9 |
| 20260509230232 | 48 | 4 | 4.3 | 8.7 | 0.00 | 0.00 | 0.00 | 38 | 1004.9 |
| 20260509225947 | 48 | 19 | 4.3 | 8.7 | 0.00 | 0.00 | 0.00 | 38 | 1004.8 |
| 20260509225221 | 48 | 324 | 3.5 | 7.8 | 0.00 | 0.00 | 0.00 | 39 | 1004.8 |
| 20260509224714 | 48 | 339 | 4.3 | 9.6 | 0.00 | 0.00 | 0.00 | 38 | 1004.8 |
| 20260509224209 | 48 | 323 | 4.3 | 9.6 | 0.00 | 0.00 | 0.00 | 37 | 1004.8 |
| 20260509223703 | 48 | 316 | 4.3 | 9.6 | 0.00 | 0.00 | 0.00 | 39 | 1004.8 |
| 20260509223419 | 48 | 304 | 3.5 | 9.6 | 0.00 | 0.00 | 0.00 | 40 | 1004.8 |
| 20260509222651 | 48 | 315 | 2.6 | 7.8 | 0.00 | 0.00 | 0.00 | 38 | 1004.7 |
| 20260509222403 | 47 | 320 | 2.6 | 7.0 | 0.00 | 0.00 | 0.00 | 39 | 1004.7 |
| 20260509222248 | 48 | 316 | 2.6 | 6.1 | 0.00 | 0.00 | 0.00 | 39 | 1004.7 |
| 20260509221133 | 47 | 321 | 1.7 | 7.0 | 0.00 | 0.00 | 0.00 | 40 | 1004.7 |
| 20260509220626 | 47 | 320 | 1.7 | 7.0 | 0.00 | 0.00 | 0.00 | 41 | 1004.7 |
| 20260509220122 | 47 | 318 | 0.9 | 7.0 | 0.00 | 0.00 | 0.00 | 40 | 1004.7 |
| 20260509215615 | 47 | 336 | 0.9 | 6.1 | 0.00 | 0.00 | 0.00 | 41 | 1004.6 |
| 20260509215110 | 47 | 336 | 1.7 | 6.1 | 0.00 | 0.00 | 0.00 | 40 | 1004.6 |
| 20260509214604 | 47 | 336 | 3.5 | 7.0 | 0.00 | 0.00 | 0.00 | 39 | 1004.6 |
| 20260509214057 | 47 | 339 | 3.5 | 7.8 | 0.00 | 0.00 | 0.00 | 41 | 1004.6 |
| 20260509213551 | 47 | 314 | 2.6 | 7.8 | 0.00 | 0.00 | 0.00 | 39 | 1004.6 |
| 20260509213046 | 47 | 313 | 3.5 | 8.7 | 0.00 | 0.00 | 0.00 | 41 | 1004.6 |
| 20260509212540 | 46 | 318 | 4.3 | 8.7 | 0.00 | 0.00 | 0.00 | 41 | 1004.4 |
| 20260509212034 | 46 | 8 | 4.3 | 8.7 | 0.00 | 0.00 | 0.00 | 42 | 1004.4 |
| 20260509211528 | 47 | 347 | 5.2 | 8.7 | 0.00 | 0.00 | 0.00 | 40 | 1004.4 |
| 20260509211022 | 47 | 308 | 4.3 | 8.7 | 0.00 | 0.00 | 0.00 | 40 | 1004.2 |
| 20260509210956 | 47 | 339 | 4.3 | 13.9 | 0.00 | 0.00 | 0.00 | 41 | 1004.2 |
| 20260509210010 | 47 | 320 | 5.2 | 13.9 | 0.00 | 0.00 | 0.00 | 42 | 1004.2 |
| 20260509205504 | 46 | 328 | 6.1 | 13.9 | 0.00 | 0.00 | 0.00 | 42 | 1004.2 |
| 20260509204958 | 46 | 309 | 6.1 | 13.9 | 0.00 | 0.00 | 0.00 | 38 | 1004.2 |
| 20260509204452 | 46 | 310 | 5.2 | 12.2 | 0.00 | 0.00 | 0.00 | 41 | 1004.1 |
| 20260509203946 | 47 | 326 | 6.1 | 12.2 | 0.00 | 0.00 | 0.00 | 41 | 1004.1 |
| 20260509203440 | 47 | 312 | 6.1 | 12.2 | 0.00 | 0.00 | 0.00 | 40 | 1004.1 |
| 20260509203208 | 47 | 337 | 5.2 | 12.2 | 0.00 | 0.00 | 0.00 | 39 | 1004.0 |
| 20260509202428 | 47 | 345 | 6.1 | 12.2 | 0.00 | 0.00 | 0.00 | 40 | 1004.0 |
| 20260509201923 | 47 | 310 | 7.0 | 18.2 | 0.00 | 0.00 | 0.00 | 41 | 1004.0 |
| 20260509201416 | 47 | 312 | 7.0 | 18.2 | 0.00 | 0.00 | 0.00 | 39 | 1003.6 |
| 20260509200910 | 47 | 339 | 7.8 | 18.2 | 0.00 | 0.00 | 0.00 | 39 | 1003.6 |
| 20260509200404 | 48 | 305 | 7.8 | 18.2 | 0.00 | 0.00 | 0.00 | 37 | 1003.6 |
| 20260509195859 | 48 | 356 | 6.1 | 15.6 | 0.00 | 0.00 | 0.00 | 39 | 1003.6 |
| 20260509195353 | 48 | 7 | 5.2 | 13.9 | 0.00 | 0.00 | 0.00 | 38 | 1003.6 |
| 20260509194846 | 47 | 325 | 7.0 | 13.9 | 0.00 | 0.00 | 0.00 | 42 | 1003.6 |
| 20260509194340 | 47 | 338 | 7.8 | 13.9 | 0.00 | 0.00 | 0.00 | 39 | 1003.4 |
| 20260509193834 | 47 | 324 | 7.0 | 13.0 | 0.00 | 0.00 | 0.00 | 39 | 1003.4 |
| 20260509193328 | 47 | 321 | 7.0 | 16.5 | 0.00 | 0.00 | 0.00 | 42 | 1003.4 |
| 20260509192822 | 47 | 323 | 8.7 | 16.5 | 0.00 | 0.00 | 0.00 | 39 | 1003.1 |
| 20260509192316 | 48 | 328 | 8.7 | 16.5 | 0.00 | 0.00 | 0.00 | 39 | 1003.1 |
| 20260509191812 | 48 | 320 | 9.6 | 16.5 | 0.00 | 0.00 | 0.00 | 41 | 1003.1 |
| 20260509191305 | 47 | 337 | 8.7 | 14.8 | 0.00 | 0.00 | 0.00 | 40 | 1003.1 |
| 20260509190758 | 47 | 308 | 7.8 | 17.4 | 0.00 | 0.00 | 0.00 | 40 | 1003.1 |
| 20260509190252 | 47 | 292 | 8.7 | 17.4 | 0.00 | 0.00 | 0.00 | 41 | 1003.1 |
| 20260509185746 | 46 | 346 | 9.6 | 17.4 | 0.00 | 0.00 | 0.00 | 41 | 1003.1 |
| 20260509185240 | 46 | 315 | 10.4 | 23.5 | 0.00 | 0.00 | 0.00 | 41 | 1003.1 |
| 20260509184735 | 46 | 326 | 9.6 | 23.5 | 0.00 | 0.00 | 0.00 | 41 | 1003.1 |
| 20260509184230 | 46 | 306 | 10.4 | 23.5 | 0.00 | 0.00 | 0.00 | 40 | 1002.7 |
| 20260509183944 | 47 | 297 | 10.4 | 23.5 | 0.00 | 0.00 | 0.00 | 42 | 1002.7 |
| 20260509183220 | 47 | 337 | 9.6 | 20.9 | 0.00 | 0.00 | 0.00 | 41 | 1002.7 |
| 20260509182710 | 47 | 333 | 9.6 | 18.2 | 0.00 | 0.00 | 0.00 | 43 | 1002.6 |
| 20260509182205 | 47 | 280 | 9.6 | 18.2 | 0.00 | 0.00 | 0.00 | 44 | 1002.6 |
| 20260509181658 | 47 | 68 | 9.6 | 16.5 | 0.00 | 0.00 | 0.00 | 42 | 1002.6 |
| 20260509181153 | 48 | 297 | 10.4 | 22.6 | 0.00 | 0.00 | 0.00 | 41 | 1002.1 |
| 20260509180646 | 48 | 0 | 9.6 | 22.6 | 0.00 | 0.00 | 0.00 | 39 | 1002.1 |
| 20260509180359 | 48 | 339 | 10.4 | 21.7 | 0.00 | 0.00 | 0.00 | 41 | 1002.1 |
| 20260509175634 | 47 | 319 | 13.0 | 21.7 | 0.00 | 0.00 | 0.00 | 42 | 1002.0 |
| 20260509175128 | 47 | 329 | 12.2 | 21.7 | 0.00 | 0.00 | 0.00 | 42 | 1002.0 |
| 20260509174622 | 47 | 307 | 12.2 | 20.0 | 0.00 | 0.00 | 0.00 | 41 | 1002.0 |
| 20260509174116 | 48 | 310 | 11.3 | 20.0 | 0.00 | 0.00 | 0.00 | 41 | 1001.6 |
| 20260509173610 | 49 | 358 | 8.7 | 18.2 | 0.00 | 0.00 | 0.00 | 38 | 1001.6 |
| 20260509173104 | 49 | 289 | 10.4 | 19.1 | 0.00 | 0.00 | 0.00 | 39 | 1001.6 |
| 20260509172558 | 49 | 231 | 9.6 | 19.1 | 0.00 | 0.00 | 0.00 | 41 | 1001.4 |
| 20260509172055 | 48 | 291 | 9.6 | 19.1 | 0.00 | 0.00 | 0.00 | 41 | 1001.4 |
| 20260509171556 | 48 | 301 | 9.6 | 20.9 | 0.00 | 0.00 | 0.00 | 38 | 1001.4 |
| 20260509171057 | 48 | 285 | 9.6 | 20.9 | 0.00 | 0.00 | 0.00 | 41 | 1000.9 |
| 20260509170556 | 48 | 301 | 11.3 | 20.9 | 0.00 | 0.00 | 0.00 | 40 | 1000.9 |
| 20260509170323 | 48 | 318 | 11.3 | 20.9 | 0.00 | 0.00 | 0.00 | 40 | 1000.9 |
| 20260509165821 | 49 | 329 | 8.7 | 20.9 | 0.00 | 0.00 | 0.00 | 39 | 1000.8 |
| 20260509165056 | 49 | 298 | 9.6 | 20.9 | 0.00 | 0.00 | 0.00 | 43 | 1000.8 |
| 20260509164555 | 48 | 294 | 9.6 | 20.9 | 0.00 | 0.00 | 0.00 | 40 | 1000.8 |
| 20260509164056 | 48 | 310 | 9.6 | 20.9 | 0.00 | 0.00 | 0.00 | 39 | 1000.7 |
| 20260509163557 | 48 | 317 | 10.4 | 19.1 | 0.00 | 0.00 | 0.00 | 42 | 1000.7 |
| 20260509163055 | 49 | 310 | 8.7 | 16.5 | 0.00 | 0.00 | 0.00 | 42 | 1000.7 |
| 20260509162556 | 48 | 294 | 9.6 | 18.2 | 0.00 | 0.00 | 0.00 | 44 | 1000.4 |
| 20260509162056 | 48 | 320 | 10.4 | 18.2 | 0.00 | 0.00 | 0.00 | 45 | 1000.4 |
| 20260509161557 | 48 | 317 | 10.4 | 22.6 | 0.00 | 0.00 | 0.00 | 44 | 1000.4 |
| 20260509161321 | 47 | 314 | 11.3 | 22.6 | 0.00 | 0.00 | 0.00 | 45 | 1000.1 |
| 20260509160541 | 47 | 310 | 11.3 | 22.6 | 0.00 | 0.00 | 0.00 | 44 | 1000.1 |
| 20260509160029 | 47 | 326 | 10.4 | 22.6 | 0.00 | 0.00 | 0.00 | 43 | 1000.1 |
| 20260509155735 | 48 | 329 | 9.6 | 22.6 | 0.00 | 0.00 | 0.00 | 43 | 999.9 |
| 20260509155452 | 48 | 314 | 9.6 | 22.6 | 0.00 | 0.00 | 0.00 | 43 | 999.9 |
| 20260509154452 | 48 | 280 | 9.6 | 21.7 | 0.00 | 0.00 | 0.00 | 45 | 999.6 |
| 20260509153940 | 47 | 341 | 9.6 | 21.7 | 0.00 | 0.00 | 0.00 | 45 | 999.6 |
| 20260509153429 | 47 | 337 | 10.4 | 22.6 | 0.00 | 0.00 | 0.00 | 44 | 999.6 |
| 20260509152916 | 47 | 262 | 11.3 | 22.6 | 0.00 | 0.00 | 0.00 | 44 | 999.4 |
| 20260509152404 | 48 | 306 | 8.7 | 19.1 | 0.00 | 0.00 | 0.00 | 43 | 999.4 |
| 20260509151852 | 47 | 310 | 7.8 | 21.7 | 0.00 | 0.00 | 0.00 | 43 | 999.4 |
| 20260509151340 | 47 | 319 | 9.6 | 21.7 | 0.00 | 0.00 | 0.00 | 44 | 999.1 |
| 20260509150828 | 47 | 310 | 10.4 | 22.6 | 0.00 | 0.00 | 0.00 | 44 | 999.1 |
| 20260509150316 | 47 | 308 | 9.6 | 22.6 | 0.00 | 0.00 | 0.00 | 41 | 999.1 |
| 20260509145804 | 46 | 318 | 9.6 | 22.6 | 0.00 | 0.00 | 0.00 | 42 | 998.9 |
| 20260509145251 | 46 | 285 | 11.3 | 22.6 | 0.00 | 0.00 | 0.00 | 44 | 998.9 |
| 20260509144745 | 46 | 285 | 13.0 | 22.6 | 0.00 | 0.00 | 0.00 | 42 | 998.9 |
| 20260509144238 | 46 | 307 | 11.3 | 20.9 | 0.00 | 0.00 | 0.00 | 42 | 998.8 |
| 20260509143733 | 46 | 338 | 10.4 | 20.9 | 0.00 | 0.00 | 0.00 | 41 | 998.8 |
| 20260509143227 | 46 | 297 | 11.3 | 20.9 | 0.00 | 0.00 | 0.00 | 42 | 998.8 |